Home   Weather   Wesseling   Past weeks
Flag for Germany

Past Weather in Wesseling, North Rhine-Westphalia, Germany — Yesterday and Last 2 Weeks

Now
57 °F

Passing clouds.


Feels Like: 54 °F
Forecast: 59 / 47 °F
Wind: 14 mph from Southwest

Location: Koeln / Bonn

Current Time: Oct 21, 2019 at 6:02:19 pm

Latest Report: Oct 21, 2019 at 5:20 pm


Visibility: N/A

Pressure: 30.09 "Hg

Humidity: 67%

Dew Point: 46 °F

Location of WesselingLocation

Past Weather in Wesseling — Graph

°F

Wesseling Temperature Yesterday

Maximum temperature yesterday: 57 °F (at 1:20 pm)
Minimum temperature yesterday: 52 °F (at 3:50 am)
Average temperature yesterday: 54 °F

High & Low Weather Summary for the Past Weeks

 TemperatureHumidityPressure
High75 °F (Oct 13, 2:20 pm)100% (Oct 6, 8:50 pm)30.09 "Hg (Oct 6, 8:50 pm)
Low46 °F (Oct 6, 8:50 pm)53% (Oct 14, 5:20 pm)29.68 "Hg (Oct 15, 7:20 am)
Average57 °F83%29.84 "Hg
* Reported Oct 6 4:20 pm — Oct 21 4:50 pm, Wesseling. Weather by CustomWeather, © 2019

Note: Actual official high and low records may vary slightly from our data, if they occured in-between our weather recording intervals... More about our weather records

Advertising

Wesseling Weather History for the Previous 24 Hours

Scroll right to see more
 ConditionsComfort  
Time TempWeatherWind HumidityBarometerVisibility
4:50 pm
Mon, Oct 21
61 °FPassing clouds.9 mph68%30.09 "HgN/A
4:20 pm61 °FPassing clouds.12 mph63%30.09 "HgN/A
3:50 pm59 °FPassing clouds.13 mph68%30.07 "HgN/A
3:20 pm61 °FPassing clouds.16 mph63%30.07 "HgN/A
2:50 pm63 °FPassing clouds.14 mph64%30.07 "HgN/A
2:20 pm63 °FPassing clouds.13 mph64%30.07 "HgN/A
1:50 pm63 °FPassing clouds.14 mph64%30.04 "HgN/A
1:20 pm63 °FScattered clouds.8 mph68%30.04 "HgN/A
12:50 pm63 °FScattered clouds.7 mph68%30.04 "HgN/A
12:20 pm63 °FScattered clouds.8 mph73%30.04 "HgN/A
11:50 am63 °FScattered clouds.12 mph77%30.01 "HgN/A
11:20 am63 °FScattered clouds.8 mph83%30.01 "HgN/A
10:50 am63 °FScattered clouds.10 mph77%29.98 "HgN/A
10:20 am61 °FPassing clouds.8 mph83%29.98 "HgN/A
9:50 am59 °FScattered clouds.9 mph88%29.98 "HgN/A
9:20 am59 °FPassing clouds.8 mph88%29.95 "HgN/A
8:50 am59 °FPassing clouds.8 mph88%29.95 "HgN/A
8:20 am57 °FScattered clouds.7 mph94%29.92 "HgN/A
7:50 am57 °FPassing clouds.9 mph94%29.92 "HgN/A
7:20 am57 °FPassing clouds.7 mph94%29.89 "HgN/A
6:50 am57 °FPassing clouds.6 mph94%29.89 "HgN/A
6:20 am55 °FPassing clouds.2 mph100%29.89 "HgN/A
5:50 am55 °FPartly cloudy.5 mph94%29.89 "HgN/A
5:20 am54 °FPassing clouds.5 mph100%29.89 "HgN/A
4:50 am54 °FFog.1 mph100%29.86 "Hg2 mi
4:20 am54 °FPassing clouds.2 mph94%29.86 "HgN/A
3:50 am54 °FPassing clouds.3 mph94%29.86 "HgN/A
3:20 am54 °FClear.1 mph100%29.83 "Hg10 mi
2:50 am55 °FClear.1 mph94%29.83 "Hg10 mi
1:50 am54 °FPassing clouds.5 mph100%29.83 "HgN/A
1:20 am54 °FPassing clouds.1 mph100%29.83 "HgN/A
12:50 am54 °FPassing clouds.1 mph100%29.83 "HgN/A
12:20 am54 °FLight rain. Partly cloudy.5 mph100%29.83 "Hg6 mi
11:50 pm
Sun, Oct 20
54 °FRain. Partly cloudy.5 mph100%29.83 "Hg6 mi
11:20 pm55 °FRain. Partly cloudy.6 mph94%29.83 "Hg6 mi
10:50 pm55 °FRain. Partly cloudy.2 mph94%29.80 "Hg6 mi
10:20 pm54 °FLight rain. Partly cloudy.2 mph100%29.80 "HgN/A
9:50 pm54 °FLight rain. Partly cloudy.6 mph100%29.80 "HgN/A
9:20 pm55 °FLight rain. Passing clouds.2 mph94%29.77 "HgN/A
8:50 pm54 °FLight rain. Passing clouds.2 mph100%29.77 "HgN/A
8:20 pm55 °FLight rain. Passing clouds.6 mph94%29.77 "HgN/A
7:50 pm55 °FRain. Passing clouds.6 mph100%29.77 "Hg3 mi
7:20 pm55 °FRain. Mostly cloudy.5 mph100%29.77 "Hg3 mi
6:50 pm55 °FRain. Mostly cloudy.2 mph100%29.74 "Hg3 mi
6:20 pm55 °FRain. Low clouds.3 mph100%29.74 "HgN/A
Weather by CustomWeather, © 2019

See weather overview